Location: Marcé
(47.5801°N, 0.3280°W)
Time: 16:30:21
(UTC+01:00)

SR - Pass Details

Date: 02 December 2021
Orbit: 582 x 872 km, 66.7° (Epoch: 22 January)

Event Time Altitude Azimuth Distance (km) Brightness Sun altitude
Rises 07:28:53 0° 333° (NNW) 2,815 - -10.0°
Exits shadow 07:29:52 - 339° (NNW) 2,500 ? -9.8°
Reaches altitude 10° 07:32:03 10° 359° (N) 1,917 ? -9.5°
Maximum altitude 07:34:27 14° 33° (NNE) 1,653 ? -9.1°
Drops below altitude 10° 07:36:52 10° 67° (ENE) 1,947 ? -8.7°
Sets 07:40:07 0° 92° (E) 2,888 ? -8.2°
